Private Wetterstation Sandau
Wetterdaten: Mittwoch, 12.09.2012
Datum Zeit Temp. A. Feuchte A. Luftdruck Regen Wind Richtung Richtung Taupunkt Windchill
12.09.2012 00:01 14,6 C 87 % 1010,9 hPa 0,0 l/m 9,0 km/h (2 Bft) W 270 12,5 C 14,6 C
12.09.2012 00:06 14,6 C 87 % 1010,9 hPa 0,0 l/m 5,0 km/h (1 Bft) W-NW 292 12,5 C 14,6 C
12.09.2012 00:11 14,5 C 87 % 1011,1 hPa 0,0 l/m 4,7 km/h (1 Bft) W-NW 292 12,4 C 14,5 C
12.09.2012 00:16 14,5 C 87 % 1010,9 hPa 0,0 l/m 5,8 km/h (2 Bft) W 270 12,4 C 14,5 C
12.09.2012 00:21 14,4 C 87 % 1011,0 hPa 0,0 l/m 3,6 km/h (1 Bft) W 270 12,3 C 14,4 C
12.09.2012 00:26 14,4 C 88 % 1010,9 hPa 0,0 l/m 8,6 km/h (2 Bft) NW 315 12,4 C 14,4 C
12.09.2012 00:31 14,4 C 87 % 1011,0 hPa 0,0 l/m 5,8 km/h (2 Bft) W-NW 292 12,3 C 14,4 C
12.09.2012 00:36 14,4 C 88 % 1011,0 hPa 0,0 l/m 4,3 km/h (1 Bft) N-NW 337 12,4 C 14,4 C
12.09.2012 00:41 14,3 C 88 % 1011,0 hPa 0,0 l/m 6,1 km/h (2 Bft) NW 315 12,3 C 14,3 C
12.09.2012 00:46 14,3 C 87 % 1011,0 hPa 0,0 l/m 6,5 km/h (2 Bft) NW 315 12,2 C 14,3 C
12.09.2012 00:51 14,3 C 87 % 1011,0 hPa 0,0 l/m 6,1 km/h (2 Bft) W-NW 292 12,2 C 14,3 C
12.09.2012 00:56 14,2 C 87 % 1011,0 hPa 0,0 l/m 12,2 km/h (2 Bft) NW 315 12,1 C 14,2 C
12.09.2012 01:01 14,2 C 87 % 1011,0 hPa 0,0 l/m 7,6 km/h (2 Bft) W-NW 292 12,1 C 14,2 C
12.09.2012 01:06 14,1 C 87 % 1011,0 hPa 0,0 l/m 4,0 km/h (1 Bft) NW 315 12,0 C 14,1 C
12.09.2012 01:11 14,1 C 87 % 1011,0 hPa 0,0 l/m 8,3 km/h (2 Bft) W 270 12,0 C 14,1 C
12.09.2012 01:16 14,1 C 87 % 1011,0 hPa 0,0 l/m 4,0 km/h (1 Bft) W-NW 292 12,0 C 14,1 C
12.09.2012 01:21 13,9 C 87 % 1011,0 hPa 0,0 l/m 3,6 km/h (1 Bft) W-NW 292 11,8 C 13,9 C
12.09.2012 01:26 13,9 C 87 % 1011,1 hPa 0,0 l/m 4,3 km/h (1 Bft) W 270 11,8 C 13,9 C
12.09.2012 01:31 13,9 C 88 % 1011,0 hPa 0,0 l/m 5,4 km/h (1 Bft) W-NW 292 11,9 C 13,9 C
12.09.2012 01:36 13,9 C 88 % 1011,0 hPa 0,0 l/m 6,1 km/h (2 Bft) NW 315 11,9 C 13,9 C
12.09.2012 01:41 13,8 C 88 % 1011,0 hPa 0,0 l/m 4,0 km/h (1 Bft) W 270 11,8 C 13,8 C
12.09.2012 01:46 13,8 C 88 % 1011,0 hPa 0,0 l/m 9,7 km/h (2 Bft) W-NW 292 11,8 C 13,8 C
12.09.2012 01:51 13,7 C 88 % 1011,0 hPa 0,0 l/m 3,2 km/h (1 Bft) W-NW 292 11,7 C 13,7 C
12.09.2012 01:56 13,6 C 88 % 1011,3 hPa 0,0 l/m 0,0 km/h (0 Bft) W-NW 292 11,6 C 13,6 C
12.09.2012 02:01 13,6 C 88 % 1011,2 hPa 0,0 l/m 1,4 km/h (1 Bft) W-NW 292 11,6 C 13,6 C
12.09.2012 02:06 13,5 C 88 % 1011,2 hPa 0,0 l/m 0,0 km/h (0 Bft) W-NW 292 11,6 C 13,5 C
12.09.2012 02:11 13,5 C 88 % 1011,3 hPa 0,0 l/m 4,0 km/h (1 Bft) NW 315 11,6 C 13,5 C
12.09.2012 02:16 13,5 C 88 % 1011,2 hPa 0,0 l/m 5,4 km/h (1 Bft) W 270 11,6 C 13,5 C
12.09.2012 02:21 13,4 C 88 % 1011,3 hPa 0,0 l/m 0,0 km/h (0 Bft) W-NW 292 11,5 C 13,4 C
12.09.2012 02:26 13,3 C 88 % 1011,1 hPa 0,0 l/m 4,0 km/h (1 Bft) W-NW 292 11,4 C 13,3 C
12.09.2012 02:31 13,3 C 88 % 1011,2 hPa 0,0 l/m 4,7 km/h (1 Bft) W 270 11,4 C 13,3 C
12.09.2012 02:36 13,2 C 88 % 1011,1 hPa 0,0 l/m 0,0 km/h (0 Bft) W-NW 292 11,3 C 13,2 C
12.09.2012 02:41 13,2 C 88 % 1011,2 hPa 0,0 l/m 0,0 km/h (0 Bft) W 270 11,3 C 13,2 C
12.09.2012 02:46 13,2 C 88 % 1011,2 hPa 0,0 l/m 0,0 km/h (0 Bft) W 270 11,3 C 13,2 C
12.09.2012 02:51 13,1 C 88 % 1011,2 hPa 0,0 l/m 3,2 km/h (1 Bft) W-NW 292 11,2 C 13,1 C
12.09.2012 02:56 13,1 C 88 % 1011,0 hPa 0,0 l/m 2,5 km/h (1 Bft) W-NW 292 11,2 C 13,1 C
12.09.2012 03:01 13,1 C 88 % 1011,0 hPa 0,0 l/m 4,7 km/h (1 Bft) W 270 11,2 C 13,1 C
12.09.2012 03:06 13,0 C 88 % 1011,0 hPa 0,0 l/m 0,0 km/h (0 Bft) W-SW 247 11,1 C 13,0 C
12.09.2012 03:11 12,9 C 88 % 1011,1 hPa 0,0 l/m 1,1 km/h (1 Bft) W 270 11,0 C 12,9 C
12.09.2012 03:16 12,8 C 88 % 1011,2 hPa 0,0 l/m 3,2 km/h (1 Bft) W-NW 292 10,9 C 12,8 C
12.09.2012 03:21 12,8 C 88 % 1011,1 hPa 0,0 l/m 3,2 km/h (1 Bft) W-NW 292 10,9 C 12,8 C
12.09.2012 03:26 12,7 C 88 % 1011,1 hPa 0,0 l/m 5,8 km/h (2 Bft) W 270 10,8 C 12,7 C
12.09.2012 03:31 12,6 C 89 % 1011,2 hPa 0,0 l/m 3,6 km/h (1 Bft) W-NW 292 10,8 C 12,6 C
12.09.2012 03:36 12,5 C 89 % 1011,1 hPa 0,0 l/m 0,0 km/h (0 Bft) W-NW 292 10,7 C 12,5 C
12.09.2012 03:41 12,5 C 89 % 1011,2 hPa 0,0 l/m 5,0 km/h (1 Bft) W-NW 292 10,7 C 12,5 C
12.09.2012 03:46 12,4 C 89 % 1011,2 hPa 0,0 l/m 1,4 km/h (1 Bft) W-NW 292 10,6 C 12,4 C
12.09.2012 03:51 12,4 C 88 % 1011,0 hPa 0,0 l/m 0,0 km/h (0 Bft) W 270 10,5 C 12,4 C
12.09.2012 03:56 12,3 C 89 % 1011,2 hPa 0,0 l/m 3,2 km/h (1 Bft) W-NW 292 10,5 C 12,3 C
12.09.2012 04:01 12,3 C 89 % 1011,1 hPa 0,0 l/m 1,1 km/h (1 Bft) W 270 10,5 C 12,3 C
12.09.2012 04:06 12,2 C 89 % 1011,1 hPa 0,0 l/m 1,8 km/h (1 Bft) W 270 10,4 C 12,2 C
12.09.2012 04:11 12,1 C 89 % 1011,0 hPa 0,0 l/m 5,8 km/h (2 Bft) W 270 10,3 C 12,1 C
12.09.2012 04:16 12,1 C 89 % 1011,1 hPa 0,0 l/m 2,2 km/h (1 Bft) W 270 10,3 C 12,1 C
12.09.2012 04:21 12,1 C 89 % 1011,0 hPa 0,0 l/m 2,9 km/h (1 Bft) W-NW 292 10,3 C 12,1 C
12.09.2012 04:26 11,9 C 89 % 1011,1 hPa 0,0 l/m 2,9 km/h (1 Bft) W 270 10,1 C 11,9 C
12.09.2012 04:31 11,9 C 89 % 1011,0 hPa 0,0 l/m 2,5 km/h (1 Bft) W-NW 292 10,1 C 11,9 C
12.09.2012 04:36 11,9 C 89 % 1011,1 hPa 0,0 l/m 6,1 km/h (2 Bft) W 270 10,1 C 11,9 C
12.09.2012 04:41 11,9 C 89 % 1011,1 hPa 0,0 l/m 7,2 km/h (2 Bft) W-SW 247 10,1 C 11,9 C
12.09.2012 04:46 11,9 C 89 % 1011,0 hPa 0,0 l/m 2,5 km/h (1 Bft) W 270 10,1 C 11,9 C
12.09.2012 04:51 11,9 C 89 % 1011,0 hPa 0,0 l/m 4,7 km/h (1 Bft) W 270 10,1 C 11,9 C
12.09.2012 04:56 11,9 C 89 % 1011,0 hPa 0,0 l/m 5,4 km/h (1 Bft) W 270 10,1 C 11,9 C
12.09.2012 05:01 11,9 C 89 % 1011,1 hPa 0,0 l/m 1,1 km/h (1 Bft) W-SW 247 10,1 C 11,9 C
12.09.2012 05:06 11,9 C 89 % 1011,1 hPa 0,0 l/m 6,5 km/h (2 Bft) W-SW 247 10,1 C 11,9 C
12.09.2012 05:11 11,8 C 89 % 1011,1 hPa 0,0 l/m 1,4 km/h (1 Bft) W-SW 247 10,0 C 11,8 C
12.09.2012 05:16 11,8 C 89 % 1011,0 hPa 0,0 l/m 5,8 km/h (2 Bft) W-NW 292 10,0 C 11,8 C
12.09.2012 05:21 11,8 C 89 % 1011,0 hPa 0,0 l/m 3,2 km/h (1 Bft) W 270 10,0 C 11,8 C
12.09.2012 05:26 11,8 C 89 % 1011,0 hPa 0,0 l/m 4,7 km/h (1 Bft) W-NW 292 10,0 C 11,8 C
12.09.2012 05:31 11,8 C 89 % 1011,0 hPa 0,0 l/m 9,0 km/h (2 Bft) W 270 10,0 C 11,8 C
12.09.2012 05:36 11,8 C 89 % 1011,0 hPa 0,0 l/m 4,7 km/h (1 Bft) W-NW 292 10,0 C 11,8 C
12.09.2012 05:41 11,7 C 89 % 1011,1 hPa 0,0 l/m 1,4 km/h (1 Bft) W 270 9,9 C 11,7 C
12.09.2012 05:46 11,6 C 89 % 1011,2 hPa 0,0 l/m 3,2 km/h (1 Bft) W-NW 292 9,8 C 11,6 C
12.09.2012 05:51 11,6 C 89 % 1011,2 hPa 0,0 l/m 4,0 km/h (1 Bft) W-NW 292 9,8 C 11,6 C
12.09.2012 05:56 11,6 C 89 % 1011,0 hPa 0,0 l/m 1,1 km/h (1 Bft) W 270 9,8 C 11,6 C
12.09.2012 06:01 11,6 C 89 % 1010,9 hPa 0,0 l/m 4,7 km/h (1 Bft) W 270 9,8 C 11,6 C
12.09.2012 06:06 11,5 C 89 % 1011,0 hPa 0,0 l/m 0,0 km/h (0 Bft) W 270 9,8 C 11,5 C
12.09.2012 06:11 11,5 C 89 % 1011,0 hPa 0,0 l/m 3,6 km/h (1 Bft) W 270 9,8 C 11,5 C
12.09.2012 06:16 11,5 C 89 % 1011,0 hPa 0,0 l/m 0,0 km/h (0 Bft) W 270 9,8 C 11,5 C
12.09.2012 06:21 11,5 C 89 % 1011,0 hPa 0,0 l/m 4,0 km/h (1 Bft) W 270 9,8 C 11,5 C
12.09.2012 06:26 11,4 C 89 % 1011,1 hPa 0,0 l/m 8,6 km/h (2 Bft) W 270 9,7 C 11,4 C
12.09.2012 06:31 11,4 C 89 % 1011,0 hPa 0,0 l/m 2,5 km/h (1 Bft) W-NW 292 9,7 C 11,4 C
12.09.2012 06:36 11,4 C 89 % 1011,0 hPa 0,0 l/m 0,0 km/h (0 Bft) W-NW 292 9,7 C 11,4 C
12.09.2012 06:41 11,3 C 89 % 1011,1 hPa 0,0 l/m 4,7 km/h (1 Bft) W 270 9,6 C 11,3 C
12.09.2012 06:46 11,3 C 89 % 1011,3 hPa 0,0 l/m 2,5 km/h (1 Bft) W-NW 292 9,6 C 11,3 C
12.09.2012 06:51 11,3 C 89 % 1011,3 hPa 0,0 l/m 0,0 km/h (0 Bft) W 270 9,6 C 11,3 C
12.09.2012 06:56 11,3 C 89 % 1011,4 hPa 0,0 l/m 3,6 km/h (1 Bft) W 270 9,6 C 11,3 C
12.09.2012 07:01 11,3 C 89 % 1011,4 hPa 0,0 l/m 4,7 km/h (1 Bft) W-SW 247 9,6 C 11,3 C
12.09.2012 07:06 11,2 C 89 % 1011,3 hPa 0,0 l/m 4,3 km/h (1 Bft) W 270 9,5 C 11,2 C
12.09.2012 07:11 11,2 C 89 % 1011,6 hPa 0,0 l/m 2,5 km/h (1 Bft) W 270 9,5 C 11,2 C
12.09.2012 07:16 11,3 C 89 % 1011,6 hPa 0,0 l/m 7,2 km/h (2 Bft) W 270 9,6 C 11,3 C
12.09.2012 07:21 11,3 C 89 % 1011,6 hPa 0,0 l/m 5,0 km/h (1 Bft) W 270 9,6 C 11,3 C
12.09.2012 07:26 11,3 C 89 % 1011,6 hPa 0,0 l/m 4,7 km/h (1 Bft) W 270 9,6 C 11,3 C
12.09.2012 07:31 11,3 C 89 % 1011,7 hPa 0,0 l/m 12,6 km/h (3 Bft) W 270 9,6 C 11,3 C
12.09.2012 07:36 11,3 C 88 % 1011,6 hPa 0,0 l/m 9,4 km/h (2 Bft) W-SW 247 9,4 C 11,3 C
12.09.2012 07:41 11,4 C 88 % 1011,7 hPa 0,0 l/m 4,0 km/h (1 Bft) W-SW 247 9,5 C 11,4 C
12.09.2012 07:46 11,4 C 88 % 1011,7 hPa 0,0 l/m 0,0 km/h (0 Bft) W 270 9,5 C 11,4 C
12.09.2012 07:51 11,4 C 88 % 1011,7 hPa 0,0 l/m 2,5 km/h (1 Bft) W 270 9,5 C 11,4 C
12.09.2012 07:56 11,4 C 88 % 1011,8 hPa 0,0 l/m 7,6 km/h (2 Bft) W 270 9,5 C 11,4 C
12.09.2012 08:01 11,5 C 88 % 1011,6 hPa 0,0 l/m 7,6 km/h (2 Bft) W 270 9,6 C 11,5 C
12.09.2012 08:06 11,5 C 88 % 1011,7 hPa 0,0 l/m 12,2 km/h (2 Bft) W 270 9,6 C 11,5 C
12.09.2012 08:11 11,6 C 88 % 1012,0 hPa 0,0 l/m 5,8 km/h (2 Bft) W 270 9,7 C 11,6 C
12.09.2012 08:16 11,6 C 88 % 1011,9 hPa 0,0 l/m 6,1 km/h (2 Bft) W 270 9,7 C 11,6 C
12.09.2012 08:21 11,8 C 88 % 1012,0 hPa 0,0 l/m 5,0 km/h (1 Bft) W-SW 247 9,9 C 11,8 C
12.09.2012 08:26 11,8 C 88 % 1012,0 hPa 0,0 l/m 4,3 km/h (1 Bft) W-SW 247 9,9 C 11,8 C
12.09.2012 08:31 11,8 C 88 % 1011,8 hPa 0,0 l/m 3,6 km/h (1 Bft) W-NW 292 9,9 C 11,8 C
12.09.2012 08:36 11,9 C 87 % 1011,6 hPa 0,0 l/m 6,1 km/h (2 Bft) N 360 9,8 C 11,9 C
12.09.2012 08:41 11,8 C 87 % 1011,6 hPa 0,0 l/m 5,8 km/h (2 Bft) W-NW 292 9,7 C 11,8 C
12.09.2012 08:46 11,9 C 87 % 1011,7 hPa 0,0 l/m 4,7 km/h (1 Bft) W 270 9,8 C 11,9 C
12.09.2012 08:51 11,9 C 87 % 1011,7 hPa 0,0 l/m 6,8 km/h (2 Bft) W 270 9,8 C 11,9 C
12.09.2012 08:56 12,1 C 87 % 1011,8 hPa 0,0 l/m 2,2 km/h (1 Bft) W-NW 292 10,0 C 12,1 C
12.09.2012 09:01 12,2 C 87 % 1011,7 hPa 0,0 l/m 9,4 km/h (2 Bft) NW 315 10,1 C 12,2 C
12.09.2012 09:06 12,3 C 87 % 1011,7 hPa 0,0 l/m 3,2 km/h (1 Bft) W-NW 292 10,2 C 12,3 C
12.09.2012 09:11 12,4 C 86 % 1011,7 hPa 0,0 l/m 3,2 km/h (1 Bft) W-NW 292 10,1 C 12,4 C
12.09.2012 09:16 12,4 C 86 % 1011,7 hPa 0,0 l/m 1,8 km/h (1 Bft) W-NW 292 10,1 C 12,4 C
12.09.2012 09:21 12,6 C 85 % 1011,7 hPa 0,0 l/m 6,8 km/h (2 Bft) W-SW 247 10,1 C 12,6 C
12.09.2012 09:26 12,6 C 84 % 1011,8 hPa 0,0 l/m 5,4 km/h (1 Bft) W-NW 292 10,0 C 12,6 C
12.09.2012 09:31 12,6 C 84 % 1011,7 hPa 0,0 l/m 10,8 km/h (2 Bft) NW 315 10,0 C 12,6 C
12.09.2012 09:36 12,8 C 84 % 1011,7 hPa 0,0 l/m 11,5 km/h (2 Bft) W-NW 292 10,2 C 12,8 C
12.09.2012 09:41 12,8 C 84 % 1011,7 hPa 0,0 l/m 11,2 km/h (2 Bft) W 270 10,2 C 12,8 C
12.09.2012 09:46 12,8 C 83 % 1011,8 hPa 0,0 l/m 7,2 km/h (2 Bft) W-NW 292 10,0 C 12,8 C
12.09.2012 09:51 12,9 C 83 % 1011,8 hPa 0,0 l/m 2,9 km/h (1 Bft) N-NW 337 10,1 C 12,9 C
12.09.2012 09:56 13,1 C 83 % 1012,0 hPa 0,0 l/m 7,6 km/h (2 Bft) N 360 10,3 C 13,1 C
12.09.2012 10:01 13,3 C 83 % 1012,0 hPa 0,0 l/m 7,9 km/h (2 Bft) W-SW 247 10,5 C 13,3 C
12.09.2012 10:06 13,4 C 82 % 1012,1 hPa 0,0 l/m 6,1 km/h (2 Bft) W-NW 292 10,4 C 13,4 C
12.09.2012 10:11 13,5 C 81 % 1012,1 hPa 0,0 l/m 5,0 km/h (1 Bft) W-NW 292 10,3 C 13,5 C
12.09.2012 10:16 13,5 C 81 % 1012,1 hPa 0,0 l/m 8,6 km/h (2 Bft) NW 315 10,3 C 13,5 C
12.09.2012 10:21 13,6 C 80 % 1012,2 hPa 0,0 l/m 4,7 km/h (1 Bft) W-NW 292 10,2 C 13,6 C
12.09.2012 10:26 13,6 C 79 % 1012,1 hPa 0,0 l/m 4,7 km/h (1 Bft) W-NW 292 10,0 C 13,6 C
12.09.2012 10:31 13,8 C 79 % 1012,1 hPa 0,0 l/m 6,5 km/h (2 Bft) W 270 10,2 C 13,8 C
12.09.2012 10:36 13,9 C 79 % 1012,2 hPa 0,0 l/m 2,5 km/h (1 Bft) W 270 10,3 C 13,9 C
12.09.2012 10:41 13,9 C 78 % 1012,2 hPa 0,0 l/m 6,8 km/h (2 Bft) W-NW 292 10,1 C 13,9 C
12.09.2012 10:46 14,1 C 79 % 1012,2 hPa 0,0 l/m 1,1 km/h (1 Bft) W-NW 292 10,5 C 14,1 C
12.09.2012 10:51 14,2 C 78 % 1012,2 hPa 0,0 l/m 5,4 km/h (1 Bft) W 270 10,4 C 14,2 C
12.09.2012 10:56 14,3 C 77 % 1012,3 hPa 0,0 l/m 9,0 km/h (2 Bft) W-NW 292 10,3 C 14,3 C
12.09.2012 11:01 14,4 C 76 % 1012,3 hPa 0,0 l/m 7,6 km/h (2 Bft) W-NW 292 10,2 C 14,4 C
12.09.2012 11:06 14,4 C 76 % 1012,4 hPa 0,0 l/m 6,1 km/h (2 Bft) W 270 10,2 C 14,4 C
12.09.2012 11:11 14,5 C 76 % 1012,2 hPa 0,0 l/m 8,6 km/h (2 Bft) W 270 10,3 C 14,5 C
12.09.2012 11:16 14,5 C 75 % 1012,3 hPa 0,0 l/m 10,1 km/h (2 Bft) NW 315 10,1 C 14,5 C
12.09.2012 11:21 14,6 C 74 % 1012,3 hPa 0,0 l/m 3,6 km/h (1 Bft) W-NW 292 10,0 C 14,6 C
12.09.2012 11:26 14,8 C 75 % 1012,3 hPa 0,0 l/m 3,6 km/h (1 Bft) W-NW 292 10,4 C 14,8 C
12.09.2012 11:31 14,9 C 74 % 1012,2 hPa 0,0 l/m 0,0 km/h (0 Bft) W-SW 247 10,3 C 14,9 C
12.09.2012 11:36 14,9 C 74 % 1012,2 hPa 0,0 l/m 7,2 km/h (2 Bft) NW 315 10,3 C 14,9 C
12.09.2012 11:41 14,9 C 73 % 1012,3 hPa 0,0 l/m 5,0 km/h (1 Bft) W-SW 247 10,1 C 14,9 C
12.09.2012 11:46 15,0 C 73 % 1012,3 hPa 0,0 l/m 9,7 km/h (2 Bft) W-SW 247 10,2 C 15,0 C
12.09.2012 11:51 15,1 C 72 % 1012,4 hPa 0,0 l/m 3,6 km/h (1 Bft) W 270 10,1 C 15,1 C
12.09.2012 11:56 15,3 C 72 % 1012,3 hPa 0,0 l/m 3,2 km/h (1 Bft) W-NW 292 10,3 C 15,3 C
12.09.2012 12:01 15,5 C 71 % 1012,3 hPa 0,0 l/m 11,5 km/h (2 Bft) W-SW 247 10,3 C 15,5 C
12.09.2012 12:06 15,5 C 70 % 1012,2 hPa 0,0 l/m 4,0 km/h (1 Bft) W-SW 247 10,1 C 15,5 C
12.09.2012 12:11 15,8 C 70 % 1012,2 hPa 0,0 l/m 4,0 km/h (1 Bft) W 270 10,3 C 15,8 C
12.09.2012 12:16 15,9 C 69 % 1012,1 hPa 0,0 l/m 2,5 km/h (1 Bft) W 270 10,2 C 15,9 C
12.09.2012 12:21 15,9 C 68 % 1012,1 hPa 0,0 l/m 4,7 km/h (1 Bft) W-NW 292 10,0 C 15,9 C
12.09.2012 12:26 16,0 C 67 % 1012,0 hPa 0,0 l/m 5,8 km/h (2 Bft) SW 225 9,9 C 16,0 C
12.09.2012 12:31 16,2 C 67 % 1012,0 hPa 0,0 l/m 15,1 km/h (3 Bft) W-SW 247 10,1 C 16,2 C
12.09.2012 12:36 16,3 C 65 % 1012,0 hPa 0,0 l/m 5,4 km/h (1 Bft) W-SW 247 9,7 C 16,3 C
12.09.2012 12:41 16,4 C 65 % 1012,0 hPa 0,0 l/m 8,6 km/h (2 Bft) W-SW 247 9,8 C 16,4 C
12.09.2012 12:46 16,6 C 64 % 1012,1 hPa 0,0 l/m 16,9 km/h (3 Bft) W 270 9,8 C 16,6 C
12.09.2012 12:51 16,6 C 64 % 1011,9 hPa 0,0 l/m 10,1 km/h (2 Bft) W 270 9,8 C 16,6 C
12.09.2012 12:56 16,8 C 63 % 1011,8 hPa 0,0 l/m 8,6 km/h (2 Bft) W-SW 247 9,7 C 16,8 C
12.09.2012 13:01 16,9 C 64 % 1012,0 hPa 0,0 l/m 15,5 km/h (3 Bft) W 270 10,0 C 16,9 C
12.09.2012 13:06 16,9 C 63 % 1011,8 hPa 0,0 l/m 12,2 km/h (2 Bft) W 270 9,8 C 16,9 C
12.09.2012 13:11 16,9 C 63 % 1011,8 hPa 0,0 l/m 7,6 km/h (2 Bft) W-SW 247 9,8 C 16,9 C
12.09.2012 13:16 16,9 C 63 % 1011,8 hPa 0,0 l/m 14,0 km/h (3 Bft) NW 315 9,8 C 16,9 C
12.09.2012 13:21 16,9 C 62 % 1011,8 hPa 0,0 l/m 13,7 km/h (3 Bft) W-NW 292 9,6 C 16,9 C
12.09.2012 13:26 16,9 C 62 % 1011,7 hPa 0,0 l/m 15,5 km/h (3 Bft) SW 225 9,6 C 16,9 C
12.09.2012 13:31 16,9 C 61 % 1011,7 hPa 0,0 l/m 5,4 km/h (1 Bft) W-SW 247 9,3 C 16,9 C
12.09.2012 13:36 17,1 C 61 % 1011,7 hPa 0,0 l/m 14,8 km/h (3 Bft) W 270 9,5 C 17,1 C
12.09.2012 13:41 17,3 C 61 % 1011,7 hPa 0,0 l/m 4,7 km/h (1 Bft) W-NW 292 9,7 C 17,3 C
12.09.2012 13:46 17,5 C 60 % 1011,7 hPa 0,0 l/m 19,1 km/h (3 Bft) NW 315 9,6 C 17,5 C
12.09.2012 13:51 17,4 C 61 % 1011,6 hPa 0,0 l/m 5,8 km/h (2 Bft) NW 315 9,8 C 17,4 C
12.09.2012 13:56 17,3 C 60 % 1011,6 hPa 0,0 l/m 2,5 km/h (1 Bft) W 270 9,5 C 17,3 C
12.09.2012 14:01 17,5 C 60 % 1011,5 hPa 0,0 l/m 25,2 km/h (4 Bft) W 270 9,6 C 17,5 C
12.09.2012 14:06 17,8 C 58 % 1011,5 hPa 0,0 l/m 4,3 km/h (1 Bft) W-NW 292 9,4 C 17,8 C
12.09.2012 14:11 17,9 C 58 % 1011,5 hPa 0,0 l/m 7,2 km/h (2 Bft) W-NW 292 9,5 C 17,9 C
12.09.2012 14:16 18,3 C 57 % 1011,4 hPa 0,0 l/m 23,0 km/h (4 Bft) W 270 9,6 C 18,3 C
12.09.2012 14:21 18,3 C 56 % 1011,5 hPa 0,0 l/m 7,2 km/h (2 Bft) W 270 9,4 C 18,3 C
12.09.2012 14:26 18,2 C 56 % 1011,3 hPa 0,0 l/m 3,2 km/h (1 Bft) W-NW 292 9,3 C 18,2 C
12.09.2012 14:31 18,2 C 57 % 1011,3 hPa 0,0 l/m 20,5 km/h (4 Bft) W-SW 247 9,5 C 18,2 C
12.09.2012 14:36 18,2 C 56 % 1011,2 hPa 0,0 l/m 5,0 km/h (1 Bft) W 270 9,3 C 18,2 C
12.09.2012 14:41 18,5 C 56 % 1011,1 hPa 0,0 l/m 7,2 km/h (2 Bft) W-NW 292 9,6 C 18,5 C
12.09.2012 14:46 18,6 C 55 % 1011,1 hPa 0,0 l/m 12,2 km/h (2 Bft) W 270 9,4 C 18,6 C
12.09.2012 14:51 18,9 C 54 % 1011,1 hPa 0,0 l/m 2,5 km/h (1 Bft) NW 315 9,4 C 18,9 C
12.09.2012 14:56 19,1 C 54 % 1011,1 hPa 0,0 l/m 10,1 km/h (2 Bft) W 270 9,6 C 19,1 C
12.09.2012 15:01 18,9 C 53 % 1011,1 hPa 0,0 l/m 6,1 km/h (2 Bft) W 270 9,1 C 18,9 C
12.09.2012 15:06 18,4 C 53 % 1011,3 hPa 0,0 l/m 10,1 km/h (2 Bft) W-NW 292 8,6 C 18,4 C
12.09.2012 15:11 17,8 C 55 % 1011,3 hPa 0,0 l/m 3,2 km/h (1 Bft) W-SW 247 8,6 C 17,8 C
12.09.2012 15:16 17,6 C 56 % 1011,2 hPa 0,0 l/m 18,4 km/h (3 Bft) W-SW 247 8,7 C 17,6 C
12.09.2012 15:21 17,4 C 57 % 1011,1 hPa 0,0 l/m 5,4 km/h (1 Bft) S 180 8,8 C 17,4 C
12.09.2012 15:26 17,5 C 59 % 1011,1 hPa 0,0 l/m 14,8 km/h (3 Bft) SW 225 9,4 C 17,5 C
12.09.2012 15:31 17,4 C 59 % 1011,0 hPa 0,0 l/m 5,8 km/h (2 Bft) SW 225 9,3 C 17,4 C
12.09.2012 15:36 17,8 C 59 % 1011,0 hPa 0,0 l/m 9,7 km/h (2 Bft) S-SW 202 9,7 C 17,8 C
12.09.2012 15:41 18,1 C 57 % 1010,9 hPa 0,0 l/m 11,9 km/h (2 Bft) W-SW 247 9,4 C 18,1 C
12.09.2012 15:46 18,1 C 56 % 1010,9 hPa 0,0 l/m 20,9 km/h (4 Bft) W-SW 247 9,2 C 18,1 C
12.09.2012 15:51 18,1 C 56 % 1011,1 hPa 0,0 l/m 10,1 km/h (2 Bft) NW 315 9,2 C 18,1 C
12.09.2012 15:56 17,9 C 56 % 1011,0 hPa 0,0 l/m 14,8 km/h (3 Bft) W-SW 247 9,0 C 17,9 C
12.09.2012 16:01 17,6 C 56 % 1011,0 hPa 0,0 l/m 12,6 km/h (3 Bft) SW 225 8,7 C 17,6 C
12.09.2012 16:06 17,4 C 57 % 1011,0 hPa 0,0 l/m 7,9 km/h (2 Bft) W-SW 247 8,8 C 17,4 C
12.09.2012 16:11 17,3 C 57 % 1011,1 hPa 0,0 l/m 4,3 km/h (1 Bft) W-NW 292 8,7 C 17,3 C
12.09.2012 16:16 17,2 C 57 % 1011,0 hPa 0,0 l/m 5,4 km/h (1 Bft) W 270 8,6 C 17,2 C
12.09.2012 16:21 17,2 C 59 % 1011,0 hPa 0,0 l/m 10,1 km/h (2 Bft) W-SW 247 9,1 C 17,2 C
12.09.2012 16:26 17,4 C 59 % 1010,9 hPa 0,0 l/m 11,9 km/h (2 Bft) W-SW 247 9,3 C 17,4 C
12.09.2012 16:31 17,7 C 57 % 1011,0 hPa 0,0 l/m 11,9 km/h (2 Bft) W-SW 247 9,1 C 17,7 C
12.09.2012 16:36 17,8 C 57 % 1011,0 hPa 0,0 l/m 8,6 km/h (2 Bft) W-SW 247 9,2 C 17,8 C
12.09.2012 16:41 17,8 C 56 % 1010,9 hPa 0,0 l/m 3,6 km/h (1 Bft) NW 315 8,9 C 17,8 C
12.09.2012 16:46 17,6 C 54 % 1010,9 hPa 0,0 l/m 2,9 km/h (1 Bft) W-NW 292 8,2 C 17,6 C
12.09.2012 16:51 17,6 C 54 % 1010,8 hPa 0,0 l/m 4,3 km/h (1 Bft) W-NW 292 8,2 C 17,6 C
12.09.2012 16:56 17,6 C 54 % 1010,9 hPa 0,0 l/m 11,2 km/h (2 Bft) NW 315 8,2 C 17,6 C
12.09.2012 17:01 17,6 C 54 % 1010,9 hPa 0,0 l/m 4,3 km/h (1 Bft) W 270 8,2 C 17,6 C
12.09.2012 17:06 17,5 C 55 % 1010,9 hPa 0,0 l/m 6,8 km/h (2 Bft) W-SW 247 8,4 C 17,5 C
12.09.2012 17:11 17,6 C 55 % 1010,7 hPa 0,0 l/m 11,5 km/h (2 Bft) W-NW 292 8,5 C 17,6 C
12.09.2012 17:16 17,5 C 53 % 1010,9 hPa 0,0 l/m 16,6 km/h (3 Bft) W-SW 247 7,8 C 17,5 C
12.09.2012 17:21 17,4 C 54 % 1011,0 hPa 0,0 l/m 6,1 km/h (2 Bft) W-SW 247 8,0 C 17,4 C
12.09.2012 17:26 17,2 C 54 % 1010,8 hPa 0,0 l/m 22,7 km/h (4 Bft) W-NW 292 7,8 C 17,2 C
12.09.2012 17:31 17,1 C 54 % 1011,0 hPa 0,0 l/m 10,8 km/h (2 Bft) NW 315 7,7 C 17,1 C
12.09.2012 17:36 17,1 C 54 % 1011,1 hPa 0,0 l/m 3,2 km/h (1 Bft) W 270 7,7 C 17,1 C
12.09.2012 17:41 17,0 C 54 % 1011,1 hPa 0,0 l/m 3,6 km/h (1 Bft) W-NW 292 7,6 C 17,0 C
12.09.2012 17:46 16,9 C 55 % 1011,1 hPa 0,0 l/m 5,8 km/h (2 Bft) W 270 7,8 C 16,9 C
12.09.2012 17:51 16,9 C 56 % 1011,0 hPa 0,0 l/m 8,3 km/h (2 Bft) W 270 8,1 C 16,9 C
12.09.2012 17:56 16,9 C 56 % 1011,2 hPa 0,0 l/m 15,8 km/h (3 Bft) W 270 8,1 C 16,9 C
12.09.2012 18:01 16,8 C 56 % 1011,3 hPa 0,0 l/m 13,3 km/h (3 Bft) W 270 8,0 C 16,8 C
12.09.2012 18:06 16,5 C 56 % 1011,4 hPa 0,0 l/m 13,0 km/h (3 Bft) W-SW 247 7,7 C 16,5 C
12.09.2012 18:11 16,3 C 56 % 1011,5 hPa 0,0 l/m 9,4 km/h (2 Bft) W-NW 292 7,5 C 16,3 C
12.09.2012 18:16 16,1 C 57 % 1011,3 hPa 0,0 l/m 7,6 km/h (2 Bft) W 270 7,6 C 16,1 C
12.09.2012 18:21 16,1 C 58 % 1011,3 hPa 0,0 l/m 5,0 km/h (1 Bft) W 270 7,8 C 16,1 C
12.09.2012 18:26 15,9 C 59 % 1011,1 hPa 0,0 l/m 9,0 km/h (2 Bft) W-SW 247 7,9 C 15,9 C
12.09.2012 18:31 15,8 C 59 % 1011,0 hPa 0,0 l/m 17,3 km/h (3 Bft) NW 315 7,8 C 15,8 C
12.09.2012 18:36 15,8 C 60 % 1011,0 hPa 0,0 l/m 6,1 km/h (2 Bft) W-SW 247 8,1 C 15,8 C
12.09.2012 18:41 15,6 C 60 % 1011,1 hPa 0,0 l/m 2,9 km/h (1 Bft) W 270 7,9 C 15,6 C
12.09.2012 18:46 15,6 C 60 % 1011,0 hPa 0,0 l/m 7,2 km/h (2 Bft) W 270 7,9 C 15,6 C
12.09.2012 18:51 15,4 C 60 % 1011,0 hPa 0,0 l/m 2,5 km/h (1 Bft) W 270 7,7 C 15,4 C
12.09.2012 18:56 15,4 C 60 % 1011,0 hPa 0,0 l/m 1,4 km/h (1 Bft) W-SW 247 7,7 C 15,4 C
12.09.2012 19:01 15,3 C 61 % 1011,0 hPa 0,0 l/m 2,2 km/h (1 Bft) W 270 7,8 C 15,3 C
12.09.2012 19:06 15,2 C 62 % 1011,3 hPa 0,0 l/m 8,3 km/h (2 Bft) W-SW 247 8,0 C 15,2 C
12.09.2012 19:11 15,0 C 63 % 1011,4 hPa 0,0 l/m 6,1 km/h (2 Bft) W 270 8,0 C 15,0 C
12.09.2012 19:16 14,9 C 63 % 1011,4 hPa 0,0 l/m 12,2 km/h (2 Bft) W 270 7,9 C 14,9 C
12.09.2012 19:21 14,9 C 63 % 1011,5 hPa 0,0 l/m 9,4 km/h (2 Bft) W 270 7,9 C 14,9 C
12.09.2012 19:26 14,8 C 64 % 1011,5 hPa 0,0 l/m 7,9 km/h (2 Bft) W-SW 247 8,1 C 14,8 C
12.09.2012 19:31 14,7 C 64 % 1011,5 hPa 0,0 l/m 11,5 km/h (2 Bft) W 270 8,0 C 14,7 C
12.09.2012 19:36 14,5 C 64 % 1011,6 hPa 0,0 l/m 11,2 km/h (2 Bft) W-SW 247 7,8 C 14,5 C
12.09.2012 19:41 14,4 C 64 % 1011,6 hPa 0,0 l/m 7,6 km/h (2 Bft) W 270 7,7 C 14,4 C
12.09.2012 19:46 14,4 C 64 % 1011,6 hPa 0,0 l/m 2,2 km/h (1 Bft) W 270 7,7 C 14,4 C
12.09.2012 19:51 14,3 C 64 % 1011,7 hPa 0,0 l/m 7,2 km/h (2 Bft) W-SW 247 7,6 C 14,3 C
12.09.2012 19:56 14,2 C 64 % 1011,6 hPa 0,0 l/m 3,6 km/h (1 Bft) W-NW 292 7,5 C 14,2 C
12.09.2012 20:01 14,1 C 64 % 1011,6 hPa 0,0 l/m 2,5 km/h (1 Bft) W-SW 247 7,4 C 14,1 C
12.09.2012 20:06 13,9 C 65 % 1011,7 hPa 0,0 l/m 2,5 km/h (1 Bft) W-NW 292 7,4 C 13,9 C
12.09.2012 20:11 13,8 C 65 % 1011,6 hPa 0,0 l/m 3,6 km/h (1 Bft) W 270 7,3 C 13,8 C
12.09.2012 20:16 13,7 C 65 % 1011,7 hPa 0,0 l/m 0,0 km/h (0 Bft) W-NW 292 7,2 C 13,7 C
12.09.2012 20:21 13,6 C 65 % 1011,8 hPa 0,0 l/m 3,2 km/h (1 Bft) W-SW 247 7,1 C 13,6 C
12.09.2012 20:26 13,5 C 65 % 1011,9 hPa 0,0 l/m 4,7 km/h (1 Bft) W-SW 247 7,1 C 13,5 C
12.09.2012 20:31 13,4 C 66 % 1012,2 hPa 0,0 l/m 2,2 km/h (1 Bft) W-SW 247 7,2 C 13,4 C
12.09.2012 20:36 13,4 C 66 % 1012,0 hPa 0,0 l/m 2,2 km/h (1 Bft) SW 225 7,2 C 13,4 C
12.09.2012 20:41 13,3 C 67 % 1012,3 hPa 0,0 l/m 4,7 km/h (1 Bft) W-SW 247 7,3 C 13,3 C
12.09.2012 20:46 13,2 C 67 % 1012,3 hPa 0,0 l/m 0,0 km/h (0 Bft) S-SW 202 7,2 C 13,2 C
12.09.2012 20:51 13,2 C 68 % 1012,2 hPa 0,0 l/m 6,8 km/h (2 Bft) W-SW 247 7,4 C 13,2 C
12.09.2012 20:56 13,1 C 69 % 1012,4 hPa 0,0 l/m 5,0 km/h (1 Bft) SW 225 7,5 C 13,1 C
12.09.2012 21:01 13,1 C 69 % 1012,4 hPa 0,0 l/m 0,0 km/h (0 Bft) SW 225 7,5 C 13,1 C
12.09.2012 21:06 13,0 C 70 % 1012,4 hPa 0,0 l/m 2,5 km/h (1 Bft) SW 225 7,7 C 13,0 C
12.09.2012 21:11 12,9 C 71 % 1012,3 hPa 0,0 l/m 5,4 km/h (1 Bft) SW 225 7,8 C 12,9 C
12.09.2012 21:16 12,9 C 71 % 1012,3 hPa 0,0 l/m 6,1 km/h (2 Bft) W 270 7,8 C 12,9 C
12.09.2012 21:21 12,9 C 72 % 1012,3 hPa 0,0 l/m 7,9 km/h (2 Bft) W 270 8,0 C 12,9 C
12.09.2012 21:26 12,8 C 72 % 1012,2 hPa 0,0 l/m 6,1 km/h (2 Bft) W-SW 247 7,9 C 12,8 C
12.09.2012 21:31 12,6 C 72 % 1012,2 hPa 0,0 l/m 4,0 km/h (1 Bft) W-SW 247 7,7 C 12,6 C
12.09.2012 21:36 12,6 C 73 % 1012,2 hPa 0,0 l/m 2,5 km/h (1 Bft) W 270 7,9 C 12,6 C
12.09.2012 21:41 12,5 C 73 % 1012,3 hPa 0,0 l/m 6,8 km/h (2 Bft) W-SW 247 7,8 C 12,5 C
12.09.2012 21:46 12,5 C 74 % 1012,4 hPa 0,0 l/m 8,6 km/h (2 Bft) W 270 8,0 C 12,5 C
12.09.2012 21:51 12,4 C 74 % 1012,4 hPa 0,0 l/m 2,2 km/h (1 Bft) W-SW 247 7,9 C 12,4 C
12.09.2012 21:56 12,4 C 74 % 1012,4 hPa 0,0 l/m 3,6 km/h (1 Bft) W 270 7,9 C 12,4 C
12.09.2012 22:01 12,4 C 74 % 1012,5 hPa 0,0 l/m 4,0 km/h (1 Bft) W-SW 247 7,9 C 12,4 C
12.09.2012 22:06 12,4 C 74 % 1012,2 hPa 0,0 l/m 3,6 km/h (1 Bft) W-SW 247 7,9 C 12,4 C
12.09.2012 22:11 12,3 C 74 % 1012,2 hPa 0,0 l/m 4,3 km/h (1 Bft) W 270 7,8 C 12,3 C
12.09.2012 22:16 12,3 C 74 % 1012,3 hPa 0,0 l/m 2,5 km/h (1 Bft) W-NW 292 7,8 C 12,3 C
12.09.2012 22:21 12,2 C 74 % 1012,3 hPa 0,0 l/m 4,0 km/h (1 Bft) W 270 7,7 C 12,2 C
12.09.2012 22:26 12,2 C 74 % 1012,3 hPa 0,0 l/m 4,0 km/h (1 Bft) W 270 7,7 C 12,2 C
12.09.2012 22:31 12,1 C 75 % 1012,3 hPa 0,0 l/m 3,2 km/h (1 Bft) W 270 7,8 C 12,1 C
12.09.2012 22:36 12,0 C 75 % 1012,4 hPa 0,0 l/m 3,6 km/h (1 Bft) W-NW 292 7,7 C 12,0 C
12.09.2012 22:41 11,9 C 75 % 1012,3 hPa 0,0 l/m 7,6 km/h (2 Bft) W-NW 292 7,6 C 11,9 C
12.09.2012 22:46 11,9 C 76 % 1012,4 hPa 0,0 l/m 2,2 km/h (1 Bft) W-NW 292 7,8 C 11,9 C
12.09.2012 22:51 11,8 C 76 % 1012,3 hPa 0,0 l/m 2,9 km/h (1 Bft) W-NW 292 7,7 C 11,8 C
12.09.2012 22:56 11,6 C 76 % 1012,2 hPa 0,0 l/m 0,0 km/h (0 Bft) W-NW 292 7,5 C 11,6 C
12.09.2012 23:01 11,6 C 76 % 1012,3 hPa 0,0 l/m 2,5 km/h (1 Bft) W-NW 292 7,5 C 11,6 C
12.09.2012 23:06 11,5 C 77 % 1012,3 hPa 0,0 l/m 2,9 km/h (1 Bft) W-NW 292 7,6 C 11,5 C
12.09.2012 23:11 11,4 C 77 % 1012,5 hPa 0,0 l/m 0,0 km/h (0 Bft) W-NW 292 7,5 C 11,4 C
12.09.2012 23:16 11,3 C 77 % 1012,5 hPa 0,0 l/m 2,9 km/h (1 Bft) W-SW 247 7,4 C 11,3 C
12.09.2012 23:21 11,3 C 77 % 1012,6 hPa 0,0 l/m 1,4 km/h (1 Bft) W 270 7,4 C 11,3 C
12.09.2012 23:26 11,2 C 78 % 1012,6 hPa 0,0 l/m 0,0 km/h (0 Bft) W 270 7,5 C 11,2 C
12.09.2012 23:31 11,1 C 78 % 1012,6 hPa 0,0 l/m 2,5 km/h (1 Bft) W 270 7,4 C 11,1 C
12.09.2012 23:36 10,9 C 78 % 1012,4 hPa 0,0 l/m 1,8 km/h (1 Bft) W 270 7,2 C 10,9 C
12.09.2012 23:41 10,9 C 79 % 1012,5 hPa 0,0 l/m 0,0 km/h (0 Bft) W-NW 292 7,4 C 10,9 C
12.09.2012 23:46 10,8 C 79 % 1012,5 hPa 0,0 l/m 0,0 km/h (0 Bft) W 270 7,3 C 10,8 C
12.09.2012 23:51 10,7 C 79 % 1012,6 hPa 0,0 l/m 0,0 km/h (0 Bft) W-NW 292 7,2 C 10,7 C
12.09.2012 23:56 10,6 C 79 % 1012,5 hPa 0,0 l/m 0,0 km/h (0 Bft) W-NW 292 7,1 C 10,6 C
_ Min-Zeit 23:56 15:01 17:11 - 01:56 - - 20:26 23:56
Minimum _ 10,6 C 53 % 1010,7 hPa - 0,0 km/h (0 Bft) - - 7,1 C 10,6 C
_ Max-Zeit 14:56 03:31 23:21 00:01 14:01 - - 00:01 14:56
Maximum _ 19,1 C 89 % 1012,6 hPa 0,0 l/m 25,2 km/h
W (4 Bft)
- - 12,5 C 19,1 C
Durchschnitt _ 14,1 C 75 % 1011,5 hPa #0,0 l/m 5,9 km/h (2 Bft) W - 9,4 C 14,1 C
(c) by David Heller